Location: Recife
(8.0585°S, 34.8848°W)
Time: 09:39:35
(UTC-03:00)

Courier 1B Rocket - Pass Details

Date: 21 April 2026
Orbit: 920 x 1201 km, 28.2° (Epoch: 13 May)

Event Time Altitude Azimuth Distance (km) Brightness Sun altitude
Rises 08:08:33 0° 225° (SW) 3,711 7.6 38.8°
Reaches altitude 10° 08:12:27 10° 204° (SSW) 2,819 7.2 39.7°
Maximum altitude 08:16:24 16° 168° (SSE) 2,480 7.2 40.6°
Drops below altitude 10° 08:20:29 10° 133° (SE) 2,940 7.9 41.5°
Sets 08:24:41 0° 112° (ESE) 3,958 8.6 42.4°
